Year,Month,Day,Hour,Minute,Value (Times are PST for temperature in C)
2016,07,06,00,00,12.90
2016,07,06,00,01,12.90
2016,07,06,00,02,12.90
2016,07,06,00,03,12.90
2016,07,06,00,04,12.90
2016,07,06,00,05,12.90
2016,07,06,00,06,12.80
2016,07,06,00,07,12.80
2016,07,06,00,08,12.80
2016,07,06,00,09,12.80
2016,07,06,00,10,12.80
2016,07,06,00,11,12.80
2016,07,06,00,12,12.80
2016,07,06,00,13,12.70
2016,07,06,00,14,12.70
2016,07,06,00,15,12.70
2016,07,06,00,16,12.70
2016,07,06,00,17,12.70
2016,07,06,00,18,12.60
2016,07,06,00,19,12.60
2016,07,06,00,20,12.60
2016,07,06,00,21,12.60
2016,07,06,00,22,12.60
2016,07,06,00,23,12.50
2016,07,06,00,24,12.50
2016,07,06,00,25,12.50
2016,07,06,00,26,12.50
2016,07,06,00,27,12.50
2016,07,06,00,28,12.40
2016,07,06,00,29,12.40
2016,07,06,00,30,12.40
2016,07,06,00,31,12.40
2016,07,06,00,32,12.40
2016,07,06,00,33,12.40
2016,07,06,00,34,12.40
2016,07,06,00,35,12.40
2016,07,06,00,36,12.40
2016,07,06,00,37,12.40
2016,07,06,00,38,12.30
2016,07,06,00,39,12.30
2016,07,06,00,40,12.30
2016,07,06,00,41,12.30
2016,07,06,00,42,12.30
2016,07,06,00,43,12.30
2016,07,06,00,44,12.30
2016,07,06,00,45,12.30
2016,07,06,00,46,12.30
2016,07,06,00,47,12.30
2016,07,06,00,48,12.30
2016,07,06,00,49,12.20
2016,07,06,00,50,12.20
2016,07,06,00,51,12.20
2016,07,06,00,52,12.20
2016,07,06,00,53,12.20
2016,07,06,00,54,12.20
2016,07,06,00,55,12.20
2016,07,06,00,56,12.10
2016,07,06,00,57,12.10
2016,07,06,00,58,12.10
2016,07,06,00,59,12.10
2016,07,06,01,00,12.10
2016,07,06,01,01,12.10
2016,07,06,01,02,12.10
2016,07,06,01,03,12.10
2016,07,06,01,04,12.00
2016,07,06,01,05,12.00
2016,07,06,01,06,12.00
2016,07,06,01,07,12.00
2016,07,06,01,08,12.00
2016,07,06,01,09,12.00
2016,07,06,01,10,12.00
2016,07,06,01,11,11.90
2016,07,06,01,12,11.90
2016,07,06,01,13,11.90
2016,07,06,01,14,11.90
2016,07,06,01,15,11.90
2016,07,06,01,16,11.90
2016,07,06,01,17,11.90
2016,07,06,01,18,11.90
2016,07,06,01,19,11.80
2016,07,06,01,20,11.80
2016,07,06,01,21,11.80
2016,07,06,01,22,11.80
2016,07,06,01,23,11.80
2016,07,06,01,24,11.80
2016,07,06,01,25,11.80
2016,07,06,01,26,11.70
2016,07,06,01,27,11.70
2016,07,06,01,28,11.70
2016,07,06,01,29,11.70
2016,07,06,01,30,11.70
2016,07,06,01,31,11.70
2016,07,06,01,32,11.60
2016,07,06,01,33,11.60
2016,07,06,01,34,11.60
2016,07,06,01,35,11.60
2016,07,06,01,36,11.60
2016,07,06,01,37,11.60
2016,07,06,01,38,11.60
2016,07,06,01,39,11.50
2016,07,06,01,40,11.50
2016,07,06,01,41,11.50
2016,07,06,01,42,11.50
2016,07,06,01,43,11.50
2016,07,06,01,44,11.40
2016,07,06,01,45,11.40
2016,07,06,01,46,11.40
2016,07,06,01,47,11.40
2016,07,06,01,48,11.40
2016,07,06,01,49,11.40
2016,07,06,01,50,11.40
2016,07,06,01,51,11.40
2016,07,06,01,52,11.30
2016,07,06,01,53,11.30
2016,07,06,01,54,11.30
2016,07,06,01,55,11.30
2016,07,06,01,56,11.30
2016,07,06,01,57,11.30
2016,07,06,01,58,11.30
2016,07,06,01,59,11.30
2016,07,06,02,00,11.30
2016,07,06,02,01,11.20
2016,07,06,02,02,11.20
2016,07,06,02,03,11.20
2016,07,06,02,04,11.20
2016,07,06,02,05,11.20
2016,07,06,02,06,11.20
2016,07,06,02,07,11.20
2016,07,06,02,08,11.20
2016,07,06,02,09,11.20
2016,07,06,02,10,11.20
2016,07,06,02,11,11.20
2016,07,06,02,12,11.20
2016,07,06,02,13,11.10
2016,07,06,02,14,11.10
2016,07,06,02,15,11.10
2016,07,06,02,16,11.10
2016,07,06,02,17,11.10
2016,07,06,02,18,11.10
2016,07,06,02,19,11.10
2016,07,06,02,20,11.10
2016,07,06,02,21,11.10
2016,07,06,02,22,11.00
2016,07,06,02,23,11.00
2016,07,06,02,24,11.00
2016,07,06,02,25,11.00
2016,07,06,02,26,11.00
2016,07,06,02,27,11.00
2016,07,06,02,28,11.00
2016,07,06,02,29,11.00
2016,07,06,02,30,10.90
2016,07,06,02,31,10.90
2016,07,06,02,32,10.90
2016,07,06,02,33,10.90
2016,07,06,02,34,10.90
2016,07,06,02,35,10.90
2016,07,06,02,36,10.90
2016,07,06,02,37,10.90
2016,07,06,02,38,10.90
2016,07,06,02,39,10.90
2016,07,06,02,40,10.90
2016,07,06,02,41,10.90
2016,07,06,02,42,10.90
2016,07,06,02,43,10.90
2016,07,06,02,44,10.90
2016,07,06,02,45,10.90
2016,07,06,02,46,10.90
2016,07,06,02,47,10.90
2016,07,06,02,48,10.90
2016,07,06,02,49,10.90
2016,07,06,02,50,10.90
2016,07,06,02,51,10.90
2016,07,06,02,52,10.90
2016,07,06,02,53,10.90
2016,07,06,02,54,10.90
2016,07,06,02,55,10.90
2016,07,06,02,56,10.90
2016,07,06,02,57,10.90
2016,07,06,02,58,10.90
2016,07,06,02,59,10.90
2016,07,06,03,00,10.90
2016,07,06,03,01,10.90
2016,07,06,03,02,10.90
2016,07,06,03,03,10.90
2016,07,06,03,04,10.90
2016,07,06,03,05,10.90
2016,07,06,03,06,10.90
2016,07,06,03,07,10.90
2016,07,06,03,08,10.80
2016,07,06,03,09,10.80
2016,07,06,03,10,10.80
2016,07,06,03,11,10.80
2016,07,06,03,12,10.80
2016,07,06,03,13,10.80
2016,07,06,03,14,10.80
2016,07,06,03,15,10.80
2016,07,06,03,16,10.80
2016,07,06,03,17,10.80
2016,07,06,03,18,10.80
2016,07,06,03,19,10.80
2016,07,06,03,20,10.80
2016,07,06,03,21,10.80
2016,07,06,03,22,10.80
2016,07,06,03,23,10.80
2016,07,06,03,24,10.80
2016,07,06,03,25,10.80
2016,07,06,03,26,10.80
2016,07,06,03,27,10.80
2016,07,06,03,28,10.80
2016,07,06,03,29,10.70
2016,07,06,03,30,10.70
2016,07,06,03,31,10.70
2016,07,06,03,32,10.70
2016,07,06,03,33,10.70
2016,07,06,03,34,10.70
2016,07,06,03,35,10.70
2016,07,06,03,36,10.70
2016,07,06,03,37,10.70
2016,07,06,03,38,10.70
2016,07,06,03,39,10.70
2016,07,06,03,40,10.70
2016,07,06,03,41,10.70
2016,07,06,03,42,10.70
2016,07,06,03,43,10.70
2016,07,06,03,44,10.70
2016,07,06,03,45,10.70
2016,07,06,03,46,10.70
2016,07,06,03,47,10.70
2016,07,06,03,48,10.70
2016,07,06,03,49,10.70
2016,07,06,03,50,10.70
2016,07,06,03,51,10.70
2016,07,06,03,52,10.70
2016,07,06,03,53,10.70
2016,07,06,03,54,10.70
2016,07,06,03,55,10.70
2016,07,06,03,56,10.70
2016,07,06,03,57,10.70
2016,07,06,03,58,10.70
2016,07,06,03,59,10.70
2016,07,06,04,00,10.70
2016,07,06,04,01,10.70
2016,07,06,04,02,10.70
2016,07,06,04,03,10.70
2016,07,06,04,04,10.70
2016,07,06,04,05,10.70
2016,07,06,04,06,10.70
2016,07,06,04,07,10.70
2016,07,06,04,08,10.70
2016,07,06,04,09,10.70
2016,07,06,04,10,10.70
2016,07,06,04,11,10.70
2016,07,06,04,12,10.70
2016,07,06,04,13,10.70
2016,07,06,04,14,10.60
2016,07,06,04,15,10.60
2016,07,06,04,16,10.60
2016,07,06,04,17,10.60
2016,07,06,04,18,10.60
2016,07,06,04,19,10.60
2016,07,06,04,20,10.60
2016,07,06,04,21,10.50
2016,07,06,04,22,10.50
2016,07,06,04,23,10.50
2016,07,06,04,24,10.50
2016,07,06,04,25,10.40
2016,07,06,04,26,10.40
2016,07,06,04,27,10.40
2016,07,06,04,28,10.40
2016,07,06,04,29,10.40
2016,07,06,04,30,10.40
2016,07,06,04,31,10.40
2016,07,06,04,32,10.40
2016,07,06,04,33,10.40
2016,07,06,04,34,10.40
2016,07,06,04,35,10.40
2016,07,06,04,36,10.30
2016,07,06,04,37,10.30
2016,07,06,04,38,10.30
2016,07,06,04,39,10.30
2016,07,06,04,40,10.30
2016,07,06,04,41,10.30
2016,07,06,04,42,10.30
2016,07,06,04,43,10.30
2016,07,06,04,44,10.30
2016,07,06,04,45,10.30
2016,07,06,04,46,10.30
2016,07,06,04,47,10.30
2016,07,06,04,48,10.30
2016,07,06,04,49,10.20
2016,07,06,04,50,10.20
2016,07,06,04,51,10.20
2016,07,06,04,52,10.20
2016,07,06,04,53,10.20
2016,07,06,04,54,10.20
2016,07,06,04,55,10.20
2016,07,06,04,56,10.20
2016,07,06,04,57,10.20
2016,07,06,04,58,10.20
2016,07,06,04,59,10.20
2016,07,06,05,00,10.20
2016,07,06,05,01,10.20
2016,07,06,05,02,10.20
2016,07,06,05,03,10.20
2016,07,06,05,04,10.20
2016,07,06,05,05,10.20
2016,07,06,05,06,10.20
2016,07,06,05,07,10.20
2016,07,06,05,08,10.20
2016,07,06,05,09,10.10
2016,07,06,05,10,10.10
2016,07,06,05,11,10.10
2016,07,06,05,12,10.10
2016,07,06,05,13,10.10
2016,07,06,05,14,10.10
2016,07,06,05,15,10.10
2016,07,06,05,16,10.10
2016,07,06,05,17,10.00
2016,07,06,05,18,10.00
2016,07,06,05,19,10.00
2016,07,06,05,20,10.00
2016,07,06,05,21,10.00
2016,07,06,05,22,10.00
2016,07,06,05,23,9.90
2016,07,06,05,24,9.90
2016,07,06,05,25,9.90
2016,07,06,05,26,9.90
2016,07,06,05,27,9.90
2016,07,06,05,28,9.90
2016,07,06,05,29,9.90
2016,07,06,05,30,9.90
2016,07,06,05,31,9.90
2016,07,06,05,32,9.90
2016,07,06,05,33,9.90
2016,07,06,05,34,9.90
2016,07,06,05,35,9.90
2016,07,06,05,36,9.90
2016,07,06,05,37,9.90
2016,07,06,05,38,9.90
2016,07,06,05,39,9.90
2016,07,06,05,40,9.90
2016,07,06,05,41,9.90
2016,07,06,05,42,9.80
2016,07,06,05,43,9.80
2016,07,06,05,44,9.80
2016,07,06,05,45,9.80
2016,07,06,05,46,9.80
2016,07,06,05,47,9.80
2016,07,06,05,48,9.80
2016,07,06,05,49,9.80
2016,07,06,05,50,9.80
2016,07,06,05,51,9.80
2016,07,06,05,52,9.80
2016,07,06,05,53,9.80
2016,07,06,05,54,9.80
2016,07,06,05,55,9.80
2016,07,06,05,56,9.80
2016,07,06,05,57,9.80
2016,07,06,05,58,9.80
2016,07,06,05,59,9.80
2016,07,06,06,00,9.80
2016,07,06,06,01,9.80
2016,07,06,06,02,9.80
2016,07,06,06,03,9.80
2016,07,06,06,04,9.90
2016,07,06,06,05,9.90
2016,07,06,06,06,9.90
2016,07,06,06,07,9.90
2016,07,06,06,08,9.90
2016,07,06,06,09,9.90
2016,07,06,06,10,9.90
2016,07,06,06,11,9.90
2016,07,06,06,12,9.90
2016,07,06,06,13,9.90
2016,07,06,06,14,9.90
2016,07,06,06,15,10.00
2016,07,06,06,16,10.00
2016,07,06,06,17,10.00
2016,07,06,06,18,10.10
2016,07,06,06,19,10.10
2016,07,06,06,20,10.10
2016,07,06,06,21,10.10
2016,07,06,06,22,10.20
2016,07,06,06,23,10.20
2016,07,06,06,24,10.20
2016,07,06,06,25,10.20
2016,07,06,06,26,10.20
2016,07,06,06,27,10.30
2016,07,06,06,28,10.30
2016,07,06,06,29,10.30
2016,07,06,06,30,10.30
2016,07,06,06,31,10.30
2016,07,06,06,32,10.30
2016,07,06,06,33,10.40
2016,07,06,06,34,10.40
2016,07,06,06,35,10.40
2016,07,06,06,36,10.40
2016,07,06,06,37,10.40
2016,07,06,06,38,10.50
2016,07,06,06,39,10.50
2016,07,06,06,40,10.50
2016,07,06,06,41,10.60
2016,07,06,06,42,10.60
2016,07,06,06,43,10.60
2016,07,06,06,44,10.60
2016,07,06,06,45,10.60
2016,07,06,06,46,10.70
2016,07,06,06,47,10.70
2016,07,06,06,48,10.70
2016,07,06,06,49,10.70
2016,07,06,06,50,10.70
2016,07,06,06,51,10.80
2016,07,06,06,52,10.80
2016,07,06,06,53,10.80
2016,07,06,06,54,10.80
2016,07,06,06,55,10.90
2016,07,06,06,56,10.90
2016,07,06,06,57,10.90
2016,07,06,06,58,10.90
2016,07,06,06,59,11.00
2016,07,06,07,00,11.00
2016,07,06,07,01,11.00
2016,07,06,07,02,11.10
2016,07,06,07,03,11.10
2016,07,06,07,04,11.10
2016,07,06,07,05,11.10
2016,07,06,07,06,11.20
2016,07,06,07,07,11.20
2016,07,06,07,08,11.20
2016,07,06,07,09,11.20
2016,07,06,07,10,11.30
2016,07,06,07,11,11.30
2016,07,06,07,12,11.30
2016,07,06,07,13,11.30
2016,07,06,07,14,11.40
2016,07,06,07,15,11.40
2016,07,06,07,16,11.40
2016,07,06,07,17,11.50
2016,07,06,07,18,11.50
2016,07,06,07,19,11.60
2016,07,06,07,20,11.60
2016,07,06,07,21,11.60
2016,07,06,07,22,11.60
2016,07,06,07,23,11.60
2016,07,06,07,24,11.70
2016,07,06,07,25,11.70
2016,07,06,07,26,11.70
2016,07,06,07,27,11.70
2016,07,06,07,28,11.70
2016,07,06,07,29,11.70
2016,07,06,07,30,11.70
2016,07,06,07,31,11.80
2016,07,06,07,32,11.80
2016,07,06,07,33,11.80
2016,07,06,07,34,11.80
2016,07,06,07,35,11.80
2016,07,06,07,36,11.80
2016,07,06,07,37,11.80
2016,07,06,07,38,11.80
2016,07,06,07,39,11.90
2016,07,06,07,40,11.90
2016,07,06,07,41,11.90
2016,07,06,07,42,11.90
2016,07,06,07,43,11.90
2016,07,06,07,44,12.00
2016,07,06,07,45,12.00
2016,07,06,07,46,12.00
2016,07,06,07,47,12.00
2016,07,06,07,48,12.10
2016,07,06,07,49,12.10
2016,07,06,07,50,12.10
2016,07,06,07,51,12.10
2016,07,06,07,52,12.10
2016,07,06,07,53,12.10
2016,07,06,07,54,12.10
2016,07,06,07,55,12.10
2016,07,06,07,56,12.10
2016,07,06,07,57,12.10
2016,07,06,07,58,12.10
2016,07,06,07,59,12.10
2016,07,06,08,00,12.10
2016,07,06,08,01,12.10
2016,07,06,08,02,12.10
2016,07,06,08,03,12.10
2016,07,06,08,04,12.10
2016,07,06,08,05,12.10
2016,07,06,08,06,12.10
2016,07,06,08,07,12.10
2016,07,06,08,08,12.10
2016,07,06,08,09,12.10
2016,07,06,08,10,12.10
2016,07,06,08,11,12.10
2016,07,06,08,12,12.10
2016,07,06,08,13,12.10
2016,07,06,08,14,12.10
2016,07,06,08,15,12.10
2016,07,06,08,16,12.10
2016,07,06,08,17,12.10
2016,07,06,08,18,12.10
2016,07,06,08,19,12.10
2016,07,06,08,20,12.10
2016,07,06,08,21,12.10
2016,07,06,08,22,12.10
2016,07,06,08,23,12.10
2016,07,06,08,24,12.10
2016,07,06,08,25,12.10
2016,07,06,08,26,12.10
2016,07,06,08,27,12.10
2016,07,06,08,28,12.10
2016,07,06,08,29,12.10
2016,07,06,08,30,12.10
2016,07,06,08,31,12.10
2016,07,06,08,32,12.10
2016,07,06,08,33,12.10
2016,07,06,08,34,12.10
2016,07,06,08,35,12.10
2016,07,06,08,36,12.20
2016,07,06,08,37,12.20
2016,07,06,08,38,12.20
2016,07,06,08,39,12.20
2016,07,06,08,40,12.20
2016,07,06,08,41,12.20
2016,07,06,08,42,12.20
2016,07,06,08,43,12.20
2016,07,06,08,44,12.20
2016,07,06,08,45,12.30
2016,07,06,08,46,12.30
2016,07,06,08,47,12.30
2016,07,06,08,48,12.30
2016,07,06,08,49,12.30
2016,07,06,08,50,12.30
2016,07,06,08,51,12.40
2016,07,06,08,52,12.40
2016,07,06,08,53,12.40
2016,07,06,08,54,12.50
2016,07,06,08,55,12.50
2016,07,06,08,56,12.50
2016,07,06,08,57,12.60
2016,07,06,08,58,12.60
2016,07,06,08,59,12.60
2016,07,06,09,00,12.60
2016,07,06,09,01,12.60
2016,07,06,09,02,12.70
2016,07,06,09,03,12.70
2016,07,06,09,04,12.70
2016,07,06,09,05,12.80
2016,07,06,09,06,12.80
2016,07,06,09,07,12.80
2016,07,06,09,08,12.90
2016,07,06,09,09,12.90
2016,07,06,09,10,13.00
2016,07,06,09,11,13.00
2016,07,06,09,12,13.10
2016,07,06,09,13,13.10
2016,07,06,09,14,13.10
2016,07,06,09,15,13.20
2016,07,06,09,16,13.20
2016,07,06,09,17,13.30
2016,07,06,09,18,13.30
2016,07,06,09,19,13.40
2016,07,06,09,20,13.40
2016,07,06,09,21,13.50
2016,07,06,09,22,13.50
2016,07,06,09,23,13.60
2016,07,06,09,24,13.60
2016,07,06,09,25,13.70
2016,07,06,09,26,13.70
2016,07,06,09,27,13.70
2016,07,06,09,28,13.80
2016,07,06,09,29,13.90
2016,07,06,09,30,14.00
2016,07,06,09,31,14.00
2016,07,06,09,32,14.10
2016,07,06,09,33,14.20
2016,07,06,09,34,14.30
2016,07,06,09,35,14.40
2016,07,06,09,36,14.60
2016,07,06,09,37,14.70
2016,07,06,09,38,14.90
2016,07,06,09,39,15.00
2016,07,06,09,40,15.00
2016,07,06,09,41,15.10
2016,07,06,09,42,15.30
2016,07,06,09,43,15.40
2016,07,06,09,44,15.50
2016,07,06,09,45,15.60
2016,07,06,09,46,15.70
2016,07,06,09,47,15.80
2016,07,06,09,48,16.00
2016,07,06,09,49,16.10
2016,07,06,09,50,16.20
2016,07,06,09,51,16.20
2016,07,06,09,52,16.20
2016,07,06,09,53,16.30
2016,07,06,09,54,16.30
2016,07,06,09,55,16.30
2016,07,06,09,56,16.40
2016,07,06,09,57,16.40
2016,07,06,09,58,16.40
2016,07,06,09,59,16.40
2016,07,06,10,00,16.40
2016,07,06,10,01,16.50
2016,07,06,10,02,16.50
2016,07,06,10,03,16.50
2016,07,06,10,04,16.60
2016,07,06,10,05,16.60
2016,07,06,10,06,16.60
2016,07,06,10,07,16.60
2016,07,06,10,08,16.60
2016,07,06,10,09,16.60
2016,07,06,10,10,16.60
2016,07,06,10,11,16.60
2016,07,06,10,12,16.60
2016,07,06,10,13,16.60
2016,07,06,10,14,16.60
2016,07,06,10,15,16.60
2016,07,06,10,16,16.70
2016,07,06,10,17,16.70
2016,07,06,10,18,16.70
2016,07,06,10,19,16.70
2016,07,06,10,20,16.80
2016,07,06,10,21,16.80
2016,07,06,10,22,16.80
2016,07,06,10,23,16.80
2016,07,06,10,24,16.80
2016,07,06,10,25,16.80
2016,07,06,10,26,16.80
2016,07,06,10,27,16.80
2016,07,06,10,28,16.80
2016,07,06,10,29,16.80
2016,07,06,10,30,16.80
2016,07,06,10,31,16.90
2016,07,06,10,32,16.90
2016,07,06,10,33,16.90
2016,07,06,10,34,16.90
2016,07,06,10,35,16.90
2016,07,06,10,36,16.90
2016,07,06,10,37,16.90
2016,07,06,10,38,17.00
2016,07,06,10,39,17.00
2016,07,06,10,40,17.00
2016,07,06,10,41,17.10
2016,07,06,10,42,17.10
2016,07,06,10,43,17.10
2016,07,06,10,44,17.20
2016,07,06,10,45,17.20
2016,07,06,10,46,17.20
2016,07,06,10,47,17.30
2016,07,06,10,48,17.30
2016,07,06,10,49,17.40
2016,07,06,10,50,17.40
2016,07,06,10,51,17.50
2016,07,06,10,52,17.60
2016,07,06,10,53,17.60
2016,07,06,10,54,17.70
2016,07,06,10,55,17.70
2016,07,06,10,56,17.70
2016,07,06,10,57,17.80
2016,07,06,10,58,17.80
2016,07,06,10,59,17.80
2016,07,06,11,00,17.80
2016,07,06,11,01,17.90
2016,07,06,11,02,17.90
2016,07,06,11,03,17.90
2016,07,06,11,04,17.90
2016,07,06,11,05,17.90
2016,07,06,11,06,18.00
2016,07,06,11,07,18.00
2016,07,06,11,08,18.00
2016,07,06,11,09,18.00
2016,07,06,11,10,18.00
2016,07,06,11,11,18.10
2016,07,06,11,12,18.00
2016,07,06,11,13,18.00
2016,07,06,11,14,18.10
2016,07,06,11,15,18.10
2016,07,06,11,16,18.10
2016,07,06,11,17,18.10
2016,07,06,11,18,18.10
2016,07,06,11,19,18.10
2016,07,06,11,20,18.10
2016,07,06,11,21,18.10
2016,07,06,11,22,18.10
2016,07,06,11,23,18.10
2016,07,06,11,24,18.20
2016,07,06,11,25,18.20
2016,07,06,11,26,18.20
2016,07,06,11,27,18.30
2016,07,06,11,28,18.40
2016,07,06,11,29,18.50
2016,07,06,11,30,18.60
2016,07,06,11,31,18.60
2016,07,06,11,32,18.70
2016,07,06,11,33,18.80
2016,07,06,11,34,18.90
2016,07,06,11,35,19.00
2016,07,06,11,36,19.10
2016,07,06,11,37,19.20
2016,07,06,11,38,19.30
2016,07,06,11,39,19.40
2016,07,06,11,40,19.50
2016,07,06,11,41,19.60
2016,07,06,11,42,19.70
2016,07,06,11,43,19.80
2016,07,06,11,44,19.90
2016,07,06,11,45,20.00
2016,07,06,11,46,20.10
2016,07,06,11,47,20.20
2016,07,06,11,48,20.20
2016,07,06,11,49,20.30
2016,07,06,11,50,20.30
2016,07,06,11,51,20.30
2016,07,06,11,52,20.40
2016,07,06,11,53,20.40
2016,07,06,11,54,20.40
2016,07,06,11,55,20.40
2016,07,06,11,56,20.40
2016,07,06,11,57,20.40
2016,07,06,11,58,20.40
2016,07,06,11,59,20.40
2016,07,06,12,00,20.40
2016,07,06,12,01,20.40
2016,07,06,12,02,20.40
2016,07,06,12,03,20.30
2016,07,06,12,04,20.30
2016,07,06,12,05,20.30
2016,07,06,12,06,20.30
2016,07,06,12,07,20.30
2016,07,06,12,08,20.30
2016,07,06,12,09,20.30
2016,07,06,12,10,20.30
2016,07,06,12,11,20.30
2016,07,06,12,12,20.30
2016,07,06,12,13,20.30
2016,07,06,12,14,20.40
2016,07,06,12,15,20.40
2016,07,06,12,16,20.40
2016,07,06,12,17,20.40
2016,07,06,12,18,20.40
2016,07,06,12,19,20.40
2016,07,06,12,20,20.30
2016,07,06,12,21,20.30
2016,07,06,12,22,20.30
2016,07,06,12,23,20.20
2016,07,06,12,24,20.20
2016,07,06,12,25,20.10
2016,07,06,12,26,20.10
2016,07,06,12,27,20.00
2016,07,06,12,28,20.00
2016,07,06,12,29,19.90
2016,07,06,12,30,19.90
2016,07,06,12,31,19.90
2016,07,06,12,32,19.80
2016,07,06,12,33,19.80
2016,07,06,12,34,19.80
2016,07,06,12,35,19.80
2016,07,06,12,36,19.70
2016,07,06,12,37,19.70
2016,07,06,12,38,19.70
2016,07,06,12,39,19.70
2016,07,06,12,40,19.60
2016,07,06,12,41,19.60
2016,07,06,12,42,19.60
2016,07,06,12,43,19.60
2016,07,06,12,44,19.60
2016,07,06,12,45,19.60
2016,07,06,12,46,19.60
2016,07,06,12,47,19.60
2016,07,06,12,48,19.60
2016,07,06,12,49,19.60
2016,07,06,12,50,19.60
2016,07,06,12,51,19.60
2016,07,06,12,52,19.60
2016,07,06,12,53,19.60
2016,07,06,12,54,19.60
2016,07,06,12,55,19.60
2016,07,06,12,56,19.60
2016,07,06,12,57,19.60
2016,07,06,12,58,19.60
2016,07,06,12,59,19.60
2016,07,06,13,00,19.60
2016,07,06,13,01,19.60
2016,07,06,13,02,19.60
2016,07,06,13,03,19.60
2016,07,06,13,04,19.60
2016,07,06,13,05,19.50
2016,07,06,13,06,19.50
2016,07,06,13,07,19.50
2016,07,06,13,08,19.40
2016,07,06,13,09,19.40
2016,07,06,13,10,19.40
2016,07,06,13,11,19.40
2016,07,06,13,12,19.40
2016,07,06,13,13,19.30
2016,07,06,13,14,19.30
2016,07,06,13,15,19.30
2016,07,06,13,16,19.30
2016,07,06,13,17,19.30
2016,07,06,13,18,19.30
2016,07,06,13,19,19.30
2016,07,06,13,20,19.30
2016,07,06,13,21,19.30
2016,07,06,13,22,19.30
2016,07,06,13,23,19.30
2016,07,06,13,24,19.30
2016,07,06,13,25,19.40
2016,07,06,13,26,19.40
2016,07,06,13,27,19.50
2016,07,06,13,28,19.50
2016,07,06,13,29,19.60
2016,07,06,13,30,19.60
2016,07,06,13,31,19.70
2016,07,06,13,32,19.70
2016,07,06,13,33,19.70
2016,07,06,13,34,19.80
2016,07,06,13,35,19.80
2016,07,06,13,36,19.90
2016,07,06,13,37,19.90
2016,07,06,13,38,20.00
2016,07,06,13,39,20.10
2016,07,06,13,40,20.10
2016,07,06,13,41,20.20
2016,07,06,13,42,20.30
2016,07,06,13,43,20.30
2016,07,06,13,44,20.40
2016,07,06,13,45,20.40
2016,07,06,13,46,20.50
2016,07,06,13,47,20.60
2016,07,06,13,48,20.60
2016,07,06,13,49,20.70
2016,07,06,13,50,20.70
2016,07,06,13,51,20.80
2016,07,06,13,52,20.80
2016,07,06,13,53,20.70
2016,07,06,13,54,20.70
2016,07,06,13,55,20.70
2016,07,06,13,56,20.70
2016,07,06,13,57,20.70
2016,07,06,13,58,20.70
2016,07,06,13,59,20.60
2016,07,06,14,00,20.60
2016,07,06,14,01,20.60
2016,07,06,14,02,20.60
2016,07,06,14,03,20.50
2016,07,06,14,04,20.50
2016,07,06,14,05,20.50
2016,07,06,14,06,20.40
2016,07,06,14,07,20.40
2016,07,06,14,08,20.40
2016,07,06,14,09,20.40
2016,07,06,14,10,20.40
2016,07,06,14,11,20.30
2016,07,06,14,12,20.30
2016,07,06,14,13,20.30
2016,07,06,14,14,20.30
2016,07,06,14,15,20.30
2016,07,06,14,16,20.30
2016,07,06,14,17,20.30
2016,07,06,14,18,20.30
2016,07,06,14,19,20.30
2016,07,06,14,20,20.30
2016,07,06,14,21,20.40
2016,07,06,14,22,20.40
2016,07,06,14,23,20.40
2016,07,06,14,24,20.50
2016,07,06,14,25,20.50
2016,07,06,14,26,20.60
2016,07,06,14,27,20.60
2016,07,06,14,28,20.70
2016,07,06,14,29,20.70
2016,07,06,14,30,20.70
2016,07,06,14,31,20.70
2016,07,06,14,32,20.70
2016,07,06,14,33,20.60
2016,07,06,14,34,20.60
2016,07,06,14,35,20.60
2016,07,06,14,36,20.60
2016,07,06,14,37,20.60
2016,07,06,14,38,20.60
2016,07,06,14,39,20.50
2016,07,06,14,40,20.50
2016,07,06,14,41,20.50
2016,07,06,14,42,20.50
2016,07,06,14,43,20.50
2016,07,06,14,44,20.50
2016,07,06,14,45,20.50
2016,07,06,14,46,20.50
2016,07,06,14,47,20.50
2016,07,06,14,48,20.40
2016,07,06,14,49,20.40
2016,07,06,14,50,20.40
2016,07,06,14,51,20.40
2016,07,06,14,52,20.40
2016,07,06,14,53,20.40
2016,07,06,14,54,20.40
2016,07,06,14,55,20.40
2016,07,06,14,56,20.40
2016,07,06,14,57,20.40
2016,07,06,14,58,20.40
2016,07,06,14,59,20.40
2016,07,06,15,00,20.40
2016,07,06,15,01,20.40
2016,07,06,15,02,20.40
2016,07,06,15,03,20.40
2016,07,06,15,04,20.50
2016,07,06,15,05,20.50
2016,07,06,15,06,20.60
2016,07,06,15,07,20.60
2016,07,06,15,08,20.60
2016,07,06,15,09,20.70
2016,07,06,15,10,20.70
2016,07,06,15,11,20.80
2016,07,06,15,12,20.80
2016,07,06,15,13,20.90
2016,07,06,15,14,21.00
2016,07,06,15,15,21.00
2016,07,06,15,16,21.10
2016,07,06,15,17,21.10
2016,07,06,15,18,21.20
2016,07,06,15,19,21.20
2016,07,06,15,20,21.30
2016,07,06,15,21,21.30
2016,07,06,15,22,21.30
2016,07,06,15,23,21.40
2016,07,06,15,24,21.50
2016,07,06,15,25,21.50
2016,07,06,15,26,21.60
2016,07,06,15,27,21.70
2016,07,06,15,28,21.70
2016,07,06,15,29,21.80
2016,07,06,15,30,21.80
2016,07,06,15,31,21.90
2016,07,06,15,32,22.00
2016,07,06,15,33,22.10
2016,07,06,15,34,22.10
2016,07,06,15,35,22.20
2016,07,06,15,36,22.30
2016,07,06,15,37,22.40
2016,07,06,15,38,22.40
2016,07,06,15,39,22.50
2016,07,06,15,40,22.50
2016,07,06,15,41,22.50
2016,07,06,15,42,22.60
2016,07,06,15,43,22.60
2016,07,06,15,44,22.60
2016,07,06,15,45,22.50
2016,07,06,15,46,22.50
2016,07,06,15,47,22.40
2016,07,06,15,48,22.40
2016,07,06,15,49,22.40
2016,07,06,15,50,22.30
2016,07,06,15,51,22.20
2016,07,06,15,52,22.10
2016,07,06,15,53,22.00
2016,07,06,15,54,22.00
2016,07,06,15,55,21.90
2016,07,06,15,56,22.00
2016,07,06,15,57,22.00
2016,07,06,15,58,22.00
2016,07,06,15,59,22.10
2016,07,06,16,00,22.20
2016,07,06,16,01,22.30
2016,07,06,16,02,22.40
2016,07,06,16,03,22.40
2016,07,06,16,04,22.50
2016,07,06,16,05,22.60
2016,07,06,16,06,22.70
2016,07,06,16,07,22.80
2016,07,06,16,08,22.90
2016,07,06,16,09,23.10
2016,07,06,16,10,23.10
2016,07,06,16,11,23.10
2016,07,06,16,12,23.10
2016,07,06,16,13,23.00
2016,07,06,16,14,23.00
2016,07,06,16,15,22.90
2016,07,06,16,16,22.90
2016,07,06,16,17,22.90
2016,07,06,16,18,23.00
2016,07,06,16,19,23.10
2016,07,06,16,20,23.10
2016,07,06,16,21,23.10
2016,07,06,16,22,23.00
2016,07,06,16,23,23.00
2016,07,06,16,24,22.90
2016,07,06,16,25,22.70
2016,07,06,16,26,22.60
2016,07,06,16,27,22.50
2016,07,06,16,28,22.40
2016,07,06,16,29,22.20
2016,07,06,16,30,22.20
2016,07,06,16,31,22.10
2016,07,06,16,32,22.00
2016,07,06,16,33,22.00
2016,07,06,16,34,21.90
2016,07,06,16,35,21.80
2016,07,06,16,36,21.80
2016,07,06,16,37,21.70
2016,07,06,16,38,21.60
2016,07,06,16,39,21.60
2016,07,06,16,40,21.50
2016,07,06,16,41,21.50
2016,07,06,16,42,21.40
2016,07,06,16,43,21.40
2016,07,06,16,44,21.40
2016,07,06,16,45,21.40
2016,07,06,16,46,21.40
2016,07,06,16,47,21.50
2016,07,06,16,48,21.50
2016,07,06,16,49,21.50
2016,07,06,16,50,21.60
2016,07,06,16,51,21.60
2016,07,06,16,52,21.60
2016,07,06,16,53,21.70
2016,07,06,16,54,21.70
2016,07,06,16,55,21.80
2016,07,06,16,56,21.80
2016,07,06,16,57,21.90
2016,07,06,16,58,21.90
2016,07,06,16,59,21.90
2016,07,06,17,00,22.00
2016,07,06,17,01,22.00
2016,07,06,17,02,22.10
2016,07,06,17,03,22.20
2016,07,06,17,04,22.30
2016,07,06,17,05,22.30
2016,07,06,17,06,22.40
2016,07,06,17,07,22.50
2016,07,06,17,08,22.50
2016,07,06,17,09,22.60
2016,07,06,17,10,22.70
2016,07,06,17,11,22.70
2016,07,06,17,12,22.70
2016,07,06,17,13,22.70
2016,07,06,17,14,22.70
2016,07,06,17,15,22.60
2016,07,06,17,16,22.60
2016,07,06,17,17,22.60
2016,07,06,17,18,22.60
2016,07,06,17,19,22.60
2016,07,06,17,20,22.70
2016,07,06,17,21,22.80